Flag for Russia Weather past 2 weeks in Surgut, Russia

Now
55 °F

Sprinkles. Passing clouds.


Feels Like: 52 °F
Forecast: 47 / 63 °F
Wind: 13 mph from West

Location: Surgut Airport

Current Time: Jul 25, 2014 at 12:23:19 AM

Latest Report: Jul 24, 2014 at 11:30 PM


Visibility: 4 mi

Pressure: 29.30 "Hg

Humidity: 94%

Dew point: 54 °F

Location of SurgutLocation

Historic Weather in Surgut — Graph

°F

Surgut temperature yesterday

Maximum temperature yesterday: 70 °F (at 2:30 PM)
Minimum temperature yesterday: 50 °F (at 4:30 AM)
Average temperature yesterday: 59 °F

Past Weeks' High & Low Weather Summary

 TemperatureHumidityPressure
High75 °F (Jul 21, 5:30 PM)100% (Jul 12, 2:00 PM)29.95 "Hg (Jul 12, 2:00 PM)
Low39 °F (Jul 16, 4:30 AM)36% (Jul 10, 3:00 PM)29.24 "Hg (Jul 24, 5:30 AM)
Average58 °F74%29.66 "Hg
* Reported Jul 9 11:00 PM — Jul 24 11:00 PM, Surgut, Weather by CustomWeather, © 2014

Note: Actual official high and low records may vary slightly from our data, if they occured in-between our weather recording intervals... More about our weather records

Advertising

Surgut weather history for previous 24 hours

 ConditionsComfort  
Time TempWeatherWind HumidityBarometerVisibility
11:00 PM
Jul 24
55 °FSprinkles. Partly sunny.10 mph100%29.30 "Hg4 mi
10:30 PM57 °FSprinkles. Broken clouds.10 mph94%29.30 "Hg4 mi
10:00 PM57 °FSprinkles. Broken clouds.6 mph94%29.30 "Hg4 mi
9:30 PM55 °FThunderstorms. Scattered clouds.10 mph94%29.30 "Hg4 mi
9:00 PM57 °FThunderstorms. Scattered clouds.10 mph88%29.30 "Hg4 mi
8:30 PM61 °FThundershowers. Scattered clouds.8 mph88%29.30 "Hg4 mi
8:00 PM63 °FThundershowers. Broken clouds.3 mph77%29.27 "Hg4 mi
7:30 PM63 °FThundershowers. Broken clouds.3 mph77%29.27 "Hg4 mi
7:00 PM63 °FBroken clouds.6 mph77%29.30 "Hg4 mi
6:30 PM64 °FBroken clouds.8 mph73%29.27 "Hg4 mi
6:00 PM63 °FBroken clouds.8 mph77%29.27 "Hg4 mi
5:30 PM64 °FPartly sunny.10 mph73%29.27 "Hg4 mi
5:00 PM64 °FPartly sunny.8 mph73%29.27 "Hg4 mi
4:30 PM64 °FPartly sunny.10 mph68%29.27 "Hg4 mi
4:00 PM66 °FBroken clouds.10 mph60%29.27 "Hg4 mi
3:30 PM66 °FBroken clouds.13 mph60%29.27 "Hg4 mi
3:00 PM66 °FBroken clouds.15 mph64%29.27 "Hg4 mi
2:30 PM70 °FThundershowers. Partly sunny.10 mph53%29.24 "Hg4 mi
2:00 PM68 °FPartly sunny.10 mph53%29.24 "Hg4 mi
1:30 PM68 °FPartly sunny.10 mph60%29.24 "Hg4 mi
1:00 PM68 °FBroken clouds.8 mph60%29.24 "Hg4 mi
12:30 PM66 °FBroken clouds.3 mph68%29.24 "Hg4 mi
11:30 AM64 °FPartly sunny.3 mph78%29.24 "Hg4 mi
11:00 AM64 °FPartly sunny.1 mph78%29.24 "Hg4 mi
10:30 AM63 °FPartly sunny.1 mph83%29.24 "Hg4 mi
10:00 AM61 °FPartly sunny.1 mph94%29.24 "Hg4 mi
9:30 AM59 °FBroken clouds.1 mph100%29.24 "Hg4 mi
9:00 AM57 °FPartly sunny.No wind100%29.24 "Hg4 mi
8:30 AM57 °FLow clouds.No wind100%29.24 "Hg4 mi
8:00 AM55 °FFog.1 mph100%29.24 "Hg0 mi
7:30 AM55 °FFog.3 mph94%29.24 "Hg0 mi
6:30 AM52 °FFog.No wind100%29.24 "Hg4 mi
6:00 AM52 °FFog.1 mph94%29.24 "Hg4 mi
5:30 AM50 °FFog.No wind100%29.24 "Hg4 mi
5:00 AM50 °FFog.No wind100%29.27 "Hg4 mi
4:30 AM50 °FFog.No wind100%29.27 "Hg4 mi
4:00 AM52 °FFog.No wind94%29.27 "Hg4 mi
3:30 AM52 °FFog.No wind100%29.27 "Hg4 mi
3:00 AM54 °FFog.No wind100%29.27 "Hg4 mi
2:30 AM54 °FFog.No wind100%29.30 "Hg4 mi
2:00 AM54 °FFog.No wind100%29.30 "Hg4 mi
1:30 AM55 °FPassing clouds.No wind100%29.30 "Hg4 mi
1:00 AM57 °FPassing clouds.No wind94%29.30 "Hg4 mi
12:30 AM57 °FPassing clouds.No wind94%29.33 "Hg4 mi
12:00 AM57 °FPassing clouds.No wind94%29.33 "Hg4 mi
Weather by CustomWeather, © 2014

See weather overviewHow to use our weather pages